Regional Weather Roundup
Issued by NWS

Home | Current Version | Previous Version | Text Only | Print | Product List | Glossary On
Versions: 1 2 3 4 5 6 7 8 9 10 11 12 13 14 15 16 17 18 19 20 21 22 23 24 25 26 27 28 29 30 31 32 33 34 35 36 37 38 39 40 41 42 43 44 45 46 47 48 49 50
000
ASUS45 KSLC 311510
RWRUT

UTAH REGIONAL WEATHER ROUNDUP
NATIONAL WEATHER SERVICE SALT LAKE CITY UT
900 AM MDT THU JUL 31 2014

UTZ001>011-023>025-311600-

NORTHERN UTAH

CITY           SKY/WX    TMP DP  RH WIND       PRES   REMARKS
HILL AFB       MOSUNNY   67  52  58 E16G25    30.22S
LOGAN          SUNNY     64  52  64 CALM      30.25S
OGDEN          MOSUNNY   71  50  47 W7        30.20R
PROVO AIRPORT  MOSUNNY   70  54  56 CALM      30.23S
SALT LAKE CITY MOSUNNY   71  53  52 CALM      30.19R
VERNAL         SUNNY     65  48  54 SE5       30.28S
WENDOVER       SUNNY     73  54  49 S3        30.21R
HEBER CITY     SUNNY     59  52  77 CALM      30.31S
WEST JORDAN    SUNNY     70  61  73 CALM      30.22S

$$

UTZ012>022-026-027-311600-

SOUTHERN UTAH

CITY           SKY/WX    TMP DP  RH WIND       PRES   REMARKS
BRYCE CANYON   SUNNY     66  48  52 NW5       30.39R
CEDAR CITY     MOSUNNY   67  51  56 CALM      30.25S
MILFORD        PTSUNNY   73  54  51 N6        30.22R
MOAB/CYNLANDS  SUNNY     72  57  59 CALM      30.17R
PRICE          MOSUNNY   71  45  39 NE12      30.27R
ST GEORGE      SUNNY     82  48  30 SE5       30.06S
KANAB            N/A     75  48  38 NW8       30.22S

$$

REGIONAL REPORTS     COLORADO/ARIZONA

CITY           SKY/WX    TMP DP  RH WIND       PRES   REMARKS
CRAIG, CO      CLOUDY    57  54  89 NW6       30.32S
GRAND JUNCTION SUNNY     69  56  62 CALM      30.21R
RIFLE          SUNNY     65  54  67 VRB3      30.26F
MONTROSE       SUNNY     68  54  60 NW3       30.28R
CORTEZ         SUNNY     70  51  51 CALM      30.24S
PAGE, AZ       SUNNY     82  49  31 NW5       30.14R
GRAND CANYON   SUNNY     74  50  42 NE3       30.32R
KINGMAN        MOSUNNY   85  49  28 E6        30.07R
FLAGSTAFF      MOSUNNY   71  48  43 SW7       30.35R

$$

REGIONAL REPORTS    NEVADA/IDAHO/WYOMING

CITY           SKY/WX    TMP DP  RH WIND       PRES   REMARKS
LAS VEGAS, NV  MOSUNNY   89  51  27 SW10      29.93S
ELY            CLOUDY    62  53  72 SW5       30.32R
ELKO           PTSUNNY   67  48  50 E3        30.24R
POCATELLO, ID  SUNNY     67  48  50 CALM      30.25S
BURLEY         SUNNY     68  52  56 NE8       30.20R
EVANSTON, WY   SUNNY     57  48  72 N6        30.39S
ROCK SPRINGS   SUNNY     58  48  69 CALM      30.38S

$$



USA.gov is the U.S. government's official web portal to all federal, state and local government web resources and services.